This demonstration page uses our WeatherBlox Daily Observations layout. Learn more.

Left ArrowRight Arrow

40.92945, -100.16068

Hourly Observations for July 6, 2019

Temp ( °F °C ) Dew Point ( °F °C ) Humidity (%) Winds ( mph kmh ) Pressure ( in mb ) Visibility ( mi km ) Precip ( " mm )
12:15 am 00:15 Cloudy 72 22.1 66 19 83 83 NE 9 15 30.07 1018 10 16 N/A
12:35 am 00:35 Cloudy 72 22.1 66 18.8 82 82 ENE 9 15 30.07 1018 10 16 N/A
12:55 am 00:55 Cloudy 72 22 66 18.8 82 82 NE 9 15 30.07 1018 10 16 N/A
1:15 am 01:15 Cloudy 71 21.7 66 18.8 84 84 ENE 8 13 30.09 1019 10 16 N/A
1:35 am 01:35 Cloudy with Thunderstorms 71 21.6 66 18.8 84 84 ENE 8 13 30.10 1019 10 16 N/A
1:55 am 01:55 Cloudy 70 21 67 19.2 90 90 N 13 20 30.12 1020 7 11 0.02 0.51
2:15 am 02:15 Cloudy with Thunderstorms 63 17.2 62 16.6 96 96 N 15 24 30.21 1023 3 5 0.09 2.29
2:35 am 02:35 Cloudy 63 17.4 61 16 92 92 ENE 9 15 30.16 1021 7 11 0.14 3.56
2:55 am 02:55 Mostly Cloudy with Nearby Thunderstorms 62 16.8 60 15.4 92 92 E 12 19 30.15 1021 10 16 0.15 3.81
3:15 am 03:15 Mostly Cloudy 63 17 60 15.5 91 91 ENE 15 24 30.13 1020 10 16 N/A
3:35 am 03:35 Mostly Cloudy with Nearby Thunderstorms 63 17 60 15.5 91 91 E 14 22 30.11 1020 10 16 N/A
3:55 am 03:55 Partly Cloudy 63 17.4 60 15.5 89 89 E 12 19 30.10 1019 10 16 N/A
4:15 am 04:15 Partly Cloudy 64 17.6 60 15.6 88 88 SSE 8 13 30.12 1020 10 16 N/A
4:35 am 04:35 Mostly Cloudy 63 17.2 61 15.9 92 92 N N/A 30.16 1021 10 16 N/A
4:55 am 04:55 Mostly Cloudy 64 17.5 61 16.1 92 92 W 16 26 30.19 1022 10 16 N/A
5:15 am 05:15 Mostly Cloudy 64 17.6 61 16.1 91 91 W 12 19 30.20 1023 10 16 N/A
5:35 am 05:35 Cloudy with Rain 64 17.5 62 16.5 94 94 WSW 5 7 30.19 1022 10 16 0.01 0.25
5:55 am 05:55 Mostly Cloudy with Drizzle 64 17.5 62 16.5 94 94 WSW 10 17 30.19 1022 10 16 0.02 0.51
6:15 am 06:15 Partly Cloudy 64 17.6 62 16.7 95 95 WSW 9 15 30.20 1023 10 16 N/A
6:35 am 06:35 Sunny 64 17.6 62 16.7 95 95 SW 7 11 30.20 1023 10 16 N/A
6:55 am 06:55 Partly Cloudy 64 17.8 62 16.6 93 93 SSW 13 20 30.19 1022 10 16 N/A
7:15 am 07:15 Cloudy 64 18 62 16.6 92 92 SSW 10 17 30.17 1022 10 16 N/A
7:35 am 07:35 Cloudy with Light Rain 64 18 62 16.7 92 92 SW 7 11 30.18 1022 10 16 N/A
7:55 am 07:55 Cloudy with Light Rain 65 18.1 62 16.6 91 91 SW 8 13 30.16 1021 10 16 N/A
8:15 am 08:15 Partly Cloudy 65 18.2 62 16.5 90 90 S 8 13 30.16 1021 10 16 N/A
8:35 am 08:35 Sunny 65 18.5 62 16.4 88 88 SSE 10 17 30.13 1020 10 16 N/A
8:55 am 08:55 Sunny 66 18.9 62 16.4 86 86 SSE 9 15 30.11 1020 10 16 N/A
9:15 am 09:15 Partly Cloudy 67 19.5 62 16.6 83 83 S 6 9 30.10 1019 10 16 N/A
9:35 am 09:35 Sunny 68 20 62 16.5 80 80 WSW 3 6 30.09 1019 10 16 N/A
9:55 am 09:55 Sunny 68 20.2 62 16.8 81 81 NW 15 24 30.11 1020 10 16 N/A
10:15 am 10:15 Sunny 69 20.8 63 17 79 79 NNW 7 11 30.09 1019 10 16 N/A
10:35 am 10:35 Sunny 71 21.5 63 17.1 76 76 NNW 16 26 30.09 1019 10 16 N/A
10:55 am 10:55 Sunny 72 22 62 16.9 73 73 NNW 16 26 30.09 1019 10 16 N/A
11:15 am 11:15 Sunny 73 22.8 63 17.3 71 71 NNW 15 24 30.09 1019 10 16 N/A
11:35 am 11:35 Sunny 75 23.9 64 17.5 68 68 NNW 14 22 30.10 1019 10 16 N/A
11:55 am 11:55 Sunny 75 23.8 62 16.9 65 65 NW 13 20 30.10 1019 10 16 N/A
12:15 pm 12:15 Sunny 76 24.2 63 17.1 65 65 NNW 8 13 30.11 1019 10 16 N/A
12:35 pm 12:35 Sunny 76 24.5 63 17.1 63 63 N 5 7 30.10 1019 10 16 N/A
12:55 pm 12:55 Sunny 78 25.4 63 17.3 61 61 N 8 13 30.09 1019 10 16 N/A
1:15 pm 13:15 Sunny 78 25.8 64 17.7 61 61 N 9 15 30.08 1019 10 16 N/A
1:35 pm 13:35 Sunny 79 26.1 64 17.6 60 60 N 7 11 30.08 1019 10 16 N/A
1:55 pm 13:55 Sunny 79 26 64 17.5 60 60 NNE 3 6 30.08 1019 10 16 N/A
2:15 pm 14:15 Partly Cloudy 79 26.3 65 18.1 61 61 N 7 11 30.07 1018 10 16 N/A
2:35 pm 14:35 Partly Cloudy 80 26.4 64 18 60 60 NNE 6 9 30.07 1018 10 16 N/A
2:55 pm 14:55 Mostly Cloudy 80 26.4 65 18.3 61 61 N 7 11 30.06 1018 10 16 N/A
3:15 pm 15:15 Partly Cloudy 80 26.5 64 17.7 59 59 E 3 6 30.06 1018 10 16 N/A
3:35 pm 15:35 Sunny 80 26.7 64 18 59 59 E 5 7 30.04 1017 10 16 N/A
3:55 pm 15:55 Sunny 80 26.7 64 17.9 59 59 ENE 9 15 30.04 1017 10 16 N/A
4:15 pm 16:15 Partly Cloudy 80 26.6 65 18.5 61 61 E 6 9 30.04 1017 10 16 N/A
4:35 pm 16:35 Mostly Cloudy 80 26.8 65 18.6 61 61 SE 5 7 30.03 1017 10 16 N/A
4:55 pm 16:55 Partly Cloudy 80 26.6 65 18.3 60 60 ESE 7 11 30.03 1017 10 16 N/A
5:15 pm 17:15 Sunny 81 27 65 18.5 60 60 ESE 8 13 30.02 1017 10 16 N/A
5:35 pm 17:35 Partly Cloudy 80 26.8 65 18.2 59 59 E 9 15 30.01 1016 10 16 N/A
5:55 pm 17:55 Mostly Cloudy 80 26.7 65 18.2 60 60 SE 6 9 30.02 1016 10 16 N/A
6:15 pm 18:15 Mostly Cloudy 80 26.6 65 18.3 60 60 SE 6 9 30.01 1016 10 16 N/A
6:35 pm 18:35 Partly Cloudy 80 26.5 65 18.4 61 61 E 6 9 30.00 1016 10 16 N/A
6:55 pm 18:55 Partly Cloudy 80 26.5 65 18.6 62 62 SE 9 15 30.00 1016 10 16 N/A
7:15 pm 19:15 Mostly Cloudy 80 26.5 65 18.6 62 62 SE 7 11 30.00 1016 10 16 N/A
7:35 pm 19:35 Mostly Cloudy 79 26 65 18.6 64 64 SSE 7 11 30.00 1016 10 16 N/A
7:55 pm 19:55 Partly Cloudy 78 25.6 65 18.6 65 65 SE 8 13 30.00 1016 10 16 N/A
8:15 pm 20:15 Sunny 78 25.3 66 19 68 68 SSE 8 13 30.02 1016 10 16 N/A
8:35 pm 20:35 Sunny 76 24.6 66 18.9 71 71 SE 8 13 30.02 1017 10 16 N/A
8:55 pm 20:55 Sunny 74 23.4 66 18.8 75 75 SSE 7 11 30.03 1017 10 16 N/A
9:15 pm 21:15 Clear 72 22.3 66 19.1 82 82 SSE 6 9 30.04 1017 10 16 N/A
9:35 pm 21:35 Clear 71 21.6 66 18.8 84 84 SSE 5 7 30.05 1018 10 16 N/A
9:55 pm 21:55 Clear 71 21.4 65 18.3 83 83 SE 6 9 30.06 1018 10 16 N/A
10:15 pm 22:15 Clear 69 20.6 65 18.2 86 86 SSE 5 7 30.07 1018 10 16 N/A
10:35 pm 22:35 Clear 68 20 64 18 88 88 SE 3 6 30.08 1019 10 16 N/A
10:55 pm 22:55 Clear 68 20.1 64 18 88 88 SE 3 6 30.07 1018 10 16 N/A
11:15 pm 23:15 Clear 69 20.7 64 17.7 83 83 SE 5 7 30.08 1018 10 16 N/A
11:35 pm 23:35 Clear 69 20.3 63 17.3 83 83 ESE 5 7 30.08 1019 10 16 N/A
11:55 pm 23:55 Clear 67 19.7 64 17.7 88 88 ESE 6 9 30.07 1018 10 16 N/A

Powered by AerisWeather